Hourly Data Report for August 25, 2017

All times are specified in Local Standard Time (LST). Add 1 hour to adjust for Daylight Saving Time where and when it is observed.

ST. STEPHEN
NEW BRUNSWICK

45°12'36.600" N
67°15'10.300" W
26.10 m
8104935
71607
WSS

Download Data

Hourly Data (August 2017)
Hourly Data Report for August 25, 2017
Temp Definition
°C
Dew Point Temp Definition
°C
Rel Hum Definition
%
Wind Dir Definition
10's deg

Wind Spd Definition
km/h
Visibility Definition
km
Stn Press Definition
kPa
Hmdx Definition


Wind Chill Definition


Weather Definition


TIME
00:00 13.5 9.9 79 33 4   101.06     LegendNANA
01:00 12.6 9.4 81 30 3   101.07     LegendNANA
02:00 10.8 8.8 88   0   101.09     LegendNANA
03:00 10.1 8.1 88 28 2   101.10     LegendNANA
04:00 8.9 7.5 91 0 1   101.11     LegendNANA
05:00 8.4 7.4 94 23 3   101.14     LegendNANA
06:00 7.5 6.6 94 22 2   101.20     LegendNANA
07:00 10.4 8.9 91 23 2   101.22     LegendNANA
08:00 14.3 9.8 74 27 4   101.26     LegendNANA
09:00 17.5 10.8 65 30 4   101.26     LegendNANA
10:00 19.8 10.0 53 34 7   101.25     LegendNANA
11:00 20.6 8.8 47 30 10   101.21     LegendNANA
12:00 21.5 8.8 44 27 9   101.16     LegendNANA
13:00 22.8 7.6 38 27 12   101.13     LegendNANA
14:00 22.4 7.0 37 27 13   101.10     LegendNANA
15:00 21.4 7.0 39 27 10   101.13     LegendNANA
16:00 22.1 6.2 36 27 14   101.12     LegendNANA
17:00 22.1 9.4 45 31 8   101.18     LegendNANA
18:00 20.3 8.9 48 32 10   101.23     LegendNANA
19:00 18.0 7.5 50 31 11   101.33     LegendNANA
20:00 16.0 7.9 58 29 8   101.43     LegendNANA
21:00 14.2 8.1 67 30 4   101.49     LegendNANA
22:00 13.9 8.5 70 30 5   101.52     LegendNANA
23:00 13.0 8.3 73 28 4   101.53     LegendNANA

Notes on Data Quality.

Legend

  • E = Estimated
  • M = Missing
  • NA = Not Available
  • ‡ = Partner data that is not subject to review by the National Climate Archives
Date modified: